Time,TemperatureF,DewpointF,PressureIn,WindDirection,WindDirectionDegrees,WindSpeedMPH,WindSpeedGustMPH,Humidity,HourlyPrecipIn,Conditions,Clouds,dailyrainin,SoftwareType,DateUTC
2013-11-08 00:09:00,37.5,34.0,30.05,WSW,258,4.0,7.0,87,0.00,,,0.00,weatherlink.com 1.10,2013-11-08 05:09:00,
2013-11-08 00:24:00,37.7,34.0,30.04,WSW,257,3.0,9.0,86,0.00,,,0.00,weatherlink.com 1.10,2013-11-08 05:24:00,
2013-11-08 00:39:00,37.6,34.0,30.05,West,266,4.0,6.0,86,0.00,,,0.00,weatherlink.com 1.10,2013-11-08 05:39:00,
2013-11-08 00:54:00,37.1,34.0,30.05,SW,221,3.0,4.0,88,0.00,,,0.00,weatherlink.com 1.10,2013-11-08 05:54:00,
2013-11-08 01:10:00,36.6,34.0,30.05,SSW,198,0.0,3.0,89,0.00,,,0.00,weatherlink.com 1.10,2013-11-08 06:10:00,
2013-11-08 01:25:00,36.3,33.0,30.06,WNW,286,1.0,3.0,89,0.00,,,0.00,weatherlink.com 1.10,2013-11-08 06:25:00,
2013-11-08 01:40:00,35.8,33.0,30.06,West,277,2.0,5.0,90,0.01,,,0.01,weatherlink.com 1.10,2013-11-08 06:40:00,
2013-11-08 01:55:00,35.3,33.0,30.06,West,281,4.0,6.0,91,0.01,,,0.01,weatherlink.com 1.10,2013-11-08 06:55:00,
2013-11-08 02:10:00,35.0,33.0,30.06,WNW,292,0.0,5.0,93,0.02,,,0.02,weatherlink.com 1.10,2013-11-08 07:10:00,
2013-11-08 02:25:00,34.9,33.0,30.06,WNW,292,1.0,4.0,93,0.02,,,0.02,weatherlink.com 1.10,2013-11-08 07:25:00,
2013-11-08 02:40:00,34.6,33.0,30.07,WNW,292,1.0,2.0,94,0.01,,,0.02,weatherlink.com 1.10,2013-11-08 07:40:00,
2013-11-08 02:55:00,34.6,33.0,30.07,SW,227,4.0,5.0,94,0.01,,,0.02,weatherlink.com 1.10,2013-11-08 07:55:00,
2013-11-08 03:10:00,34.1,33.0,30.07,SW,226,3.0,6.0,95,0.00,,,0.02,weatherlink.com 1.10,2013-11-08 08:10:00,
2013-11-08 03:25:00,33.8,33.0,30.07,SW,226,1.0,5.0,95,0.00,,,0.02,weatherlink.com 1.10,2013-11-08 08:25:00,
2013-11-08 03:40:00,33.7,33.0,30.08,SW,234,2.0,4.0,95,0.00,,,0.02,weatherlink.com 1.10,2013-11-08 08:40:00,
2013-11-08 03:55:00,33.7,33.0,30.08,WSW,250,2.0,6.0,96,0.00,,,0.02,weatherlink.com 1.10,2013-11-08 08:55:00,
2013-11-08 04:10:00,33.7,33.0,30.08,WSW,250,2.0,3.0,96,0.00,,,0.02,weatherlink.com 1.10,2013-11-08 09:10:00,
2013-11-08 04:25:00,33.4,32.0,30.08,WSW,250,2.0,2.0,95,0.00,,,0.02,weatherlink.com 1.10,2013-11-08 09:25:00,
2013-11-08 04:40:00,32.9,32.0,30.08,WSW,250,1.0,2.0,95,0.00,,,0.02,weatherlink.com 1.10,2013-11-08 09:40:00,
2013-11-08 04:55:00,32.6,32.0,30.09,WSW,250,1.0,3.0,96,0.00,,,0.02,weatherlink.com 1.10,2013-11-08 09:55:00,
2013-11-08 05:10:00,32.5,32.0,30.09,WSW,250,0.0,2.0,96,0.00,,,0.02,weatherlink.com 1.10,2013-11-08 10:10:00,
2013-11-08 05:25:00,32.0,31.0,30.10,WSW,250,0.0,1.0,96,0.00,,,0.02,weatherlink.com 1.10,2013-11-08 10:25:00,
2013-11-08 05:40:00,31.7,31.0,30.11,WSW,250,0.0,1.0,96,0.00,,,0.02,weatherlink.com 1.10,2013-11-08 10:40:00,
2013-11-08 05:55:00,31.4,30.0,30.11,WSW,250,0.0,1.0,96,0.00,,,0.02,weatherlink.com 1.10,2013-11-08 10:55:00,
2013-11-08 06:10:00,31.0,30.0,30.12,WSW,250,1.0,2.0,96,0.00,,,0.02,weatherlink.com 1.10,2013-11-08 11:10:00,
2013-11-08 06:25:00,31.1,30.0,30.12,WSW,250,1.0,3.0,96,0.00,,,0.02,weatherlink.com 1.10,2013-11-08 11:25:00,
2013-11-08 06:40:00,31.2,30.0,30.13,WSW,250,2.0,3.0,96,0.00,,,0.02,weatherlink.com 1.10,2013-11-08 11:40:00,
2013-11-08 06:55:00,31.2,30.0,30.13,WSW,250,0.0,3.0,95,0.00,,,0.02,weatherlink.com 1.10,2013-11-08 11:55:00,
2013-11-08 07:10:00,31.0,30.0,30.14,WSW,250,0.0,2.0,95,0.00,,,0.02,weatherlink.com 1.10,2013-11-08 12:10:00,
2013-11-08 07:25:00,30.7,30.0,30.14,WSW,250,1.0,2.0,95,0.00,,,0.02,weatherlink.com 1.10,2013-11-08 12:25:00,
2013-11-08 07:40:00,30.4,29.0,30.15,WSW,250,0.0,3.0,95,0.00,,,0.02,weatherlink.com 1.10,2013-11-08 12:40:00,
2013-11-08 07:55:00,30.4,29.0,30.16,WSW,250,0.0,0.0,95,0.00,,,0.02,weatherlink.com 1.10,2013-11-08 12:55:00,
2013-11-08 08:10:00,30.8,30.0,30.17,WSW,250,3.0,3.0,95,0.00,,,0.02,weatherlink.com 1.10,2013-11-08 13:10:00,
2013-11-08 08:25:00,31.7,31.0,30.18,WSW,250,4.0,4.0,95,0.00,,,0.02,weatherlink.com 1.10,2013-11-08 13:25:00,
2013-11-08 08:40:00,32.6,31.0,30.18,WSW,249,2.0,4.0,92,0.00,,,0.02,weatherlink.com 1.10,2013-11-08 13:40:00,
2013-11-08 08:56:00,33.9,32.0,30.18,West,259,2.0,4.0,91,0.00,,,0.02,weatherlink.com 1.10,2013-11-08 13:56:00,
2013-11-08 09:11:00,35.1,32.0,30.17,WNW,294,1.0,4.0,87,0.00,,,0.02,weatherlink.com 1.10,2013-11-08 14:11:00,
2013-11-08 09:26:00,36.1,32.0,30.18,West,266,4.0,5.0,86,0.00,,,0.02,weatherlink.com 1.10,2013-11-08 14:26:00,
2013-11-08 09:41:00,37.1,32.0,30.19,WNW,282,3.0,6.0,83,0.00,,,0.02,weatherlink.com 1.10,2013-11-08 14:41:00,
2013-11-08 09:56:00,38.1,33.0,30.19,WNW,284,2.0,7.0,81,0.00,,,0.02,weatherlink.com 1.10,2013-11-08 14:56:00,
2013-11-08 10:11:00,38.5,32.0,30.19,WNW,285,5.0,9.0,78,0.00,,,0.02,weatherlink.com 1.10,2013-11-08 15:11:00,
2013-11-08 10:26:00,39.1,32.0,30.19,WNW,284,1.0,9.0,76,0.00,,,0.02,weatherlink.com 1.10,2013-11-08 15:26:00,
2013-11-08 10:41:00,38.9,31.0,30.19,West,265,4.0,10.0,73,0.00,,,0.02,weatherlink.com 1.10,2013-11-08 15:41:00,
2013-11-08 10:56:00,39.4,32.0,30.19,NW,318,5.0,8.0,74,0.00,,,0.02,weatherlink.com 1.10,2013-11-08 15:56:00,
2013-11-08 11:11:00,40.5,32.0,30.19,West,265,2.0,9.0,73,0.00,,,0.02,weatherlink.com 1.10,2013-11-08 16:11:00,
2013-11-08 11:26:00,39.9,32.0,30.18,WSW,244,6.0,9.0,73,0.00,,,0.02,weatherlink.com 1.10,2013-11-08 16:26:00,
2013-11-08 11:41:00,40.7,32.0,30.18,West,270,6.0,12.0,72,0.00,,,0.02,weatherlink.com 1.10,2013-11-08 16:41:00,
2013-11-08 11:56:00,41.4,32.0,30.18,SW,231,5.0,10.0,68,0.00,,,0.02,weatherlink.com 1.10,2013-11-08 16:56:00,
2013-11-08 12:11:00,41.4,31.0,30.17,WNW,292,4.0,9.0,67,0.00,,,0.02,weatherlink.com 1.10,2013-11-08 17:11:00,
2013-11-08 12:26:00,42.4,32.0,30.16,North,360,1.0,6.0,67,0.00,,,0.02,weatherlink.com 1.10,2013-11-08 17:26:00,
2013-11-08 12:41:00,42.9,32.0,30.15,WNW,286,2.0,8.0,65,0.00,,,0.02,weatherlink.com 1.10,2013-11-08 17:41:00,
2013-11-08 12:56:00,42.8,31.0,30.14,SW,225,5.0,9.0,64,0.00,,,0.02,weatherlink.com 1.10,2013-11-08 17:56:00,
2013-11-08 13:11:00,43.0,31.0,30.14,WNW,282,3.0,8.0,63,0.00,,,0.02,weatherlink.com 1.10,2013-11-08 18:11:00,
2013-11-08 13:26:00,43.4,31.0,30.13,SSW,202,7.0,12.0,63,0.00,,,0.02,weatherlink.com 1.10,2013-11-08 18:26:00,
2013-11-08 13:41:00,43.5,31.0,30.13,WSW,240,5.0,9.0,62,0.00,,,0.02,weatherlink.com 1.10,2013-11-08 18:41:00,
2013-11-08 13:56:00,43.8,31.0,30.13,West,277,5.0,10.0,60,0.00,,,0.02,weatherlink.com 1.10,2013-11-08 18:56:00,
2013-11-08 14:11:00,44.8,31.0,30.12,SE,146,2.0,8.0,59,0.00,,,0.02,weatherlink.com 1.10,2013-11-08 19:11:00,
2013-11-08 14:26:00,45.1,30.0,30.12,SW,223,3.0,11.0,55,0.00,,,0.02,weatherlink.com 1.10,2013-11-08 19:26:00,
2013-11-08 14:41:00,45.3,31.0,30.11,South,188,6.0,10.0,57,0.00,,,0.02,weatherlink.com 1.10,2013-11-08 19:41:00,
2013-11-08 14:56:00,45.5,30.0,30.11,SSW,207,7.0,8.0,56,0.00,,,0.02,weatherlink.com 1.10,2013-11-08 19:56:00,
2013-11-08 15:11:00,45.6,31.0,30.11,SW,215,5.0,10.0,56,0.00,,,0.02,weatherlink.com 1.10,2013-11-08 20:11:00,
2013-11-08 15:26:00,45.0,31.0,30.10,WSW,237,4.0,11.0,59,0.00,,,0.02,weatherlink.com 1.10,2013-11-08 20:26:00,
2013-11-08 15:41:00,44.7,31.0,30.10,SW,217,6.0,8.0,59,0.00,,,0.02,weatherlink.com 1.10,2013-11-08 20:41:00,
2013-11-08 15:56:00,44.7,32.0,30.10,SSW,197,5.0,9.0,62,0.00,,,0.02,weatherlink.com 1.10,2013-11-08 20:56:00,
2013-11-08 16:11:00,44.8,31.0,30.10,WSW,254,3.0,7.0,60,0.00,,,0.02,weatherlink.com 1.10,2013-11-08 21:11:00,
2013-11-08 16:26:00,44.4,31.0,30.10,SW,215,3.0,9.0,60,0.00,,,0.02,weatherlink.com 1.10,2013-11-08 21:26:00,
2013-11-08 16:41:00,44.2,31.0,30.10,SW,227,2.0,9.0,60,0.00,,,0.02,weatherlink.com 1.10,2013-11-08 21:41:00,
2013-11-08 16:56:00,43.7,32.0,30.09,SSE,163,2.0,8.0,64,0.00,,,0.02,weatherlink.com 1.10,2013-11-08 21:56:00,
2013-11-08 17:11:00,42.9,31.0,30.09,SW,232,3.0,7.0,64,0.00,,,0.02,weatherlink.com 1.10,2013-11-08 22:11:00,
2013-11-08 17:26:00,42.5,32.0,30.09,SSW,197,1.0,3.0,66,0.00,,,0.02,weatherlink.com 1.10,2013-11-08 22:26:00,
2013-11-08 17:41:00,42.3,32.0,30.09,South,180,2.0,2.0,66,0.00,,,0.02,weatherlink.com 1.10,2013-11-08 22:41:00,
2013-11-08 17:56:00,41.8,32.0,30.09,South,180,1.0,3.0,67,0.00,,,0.02,weatherlink.com 1.10,2013-11-08 22:56:00,
2013-11-08 18:11:00,41.2,31.0,30.08,SSE,167,1.0,3.0,68,0.00,,,0.02,weatherlink.com 1.10,2013-11-08 23:11:00,
2013-11-08 18:26:00,40.9,31.0,30.08,SSE,167,2.0,2.0,69,0.00,,,0.02,weatherlink.com 1.10,2013-11-08 23:26:00,
2013-11-08 18:41:00,40.8,32.0,30.08,SE,143,2.0,4.0,70,0.00,,,0.02,weatherlink.com 1.10,2013-11-08 23:41:00,
2013-11-08 18:56:00,40.5,32.0,30.08,SSE,150,3.0,4.0,71,0.00,,,0.02,weatherlink.com 1.10,2013-11-08 23:56:00,
2013-11-08 19:11:00,40.5,32.0,30.07,SE,130,3.0,4.0,72,0.00,,,0.02,weatherlink.com 1.10,2013-11-09 00:11:00,
2013-11-08 19:26:00,40.5,32.0,30.05,ESE,114,3.0,6.0,73,0.00,,,0.02,weatherlink.com 1.10,2013-11-09 00:26:00,
2013-11-08 19:41:00,40.7,33.0,30.06,South,186,5.0,6.0,73,0.00,,,0.02,weatherlink.com 1.10,2013-11-09 00:41:00,
2013-11-08 19:56:00,40.9,33.0,30.06,South,169,3.0,5.0,73,0.00,,,0.02,weatherlink.com 1.10,2013-11-09 00:56:00,
2013-11-08 20:11:00,41.2,33.0,30.05,SSE,151,3.0,7.0,73,0.00,,,0.02,weatherlink.com 1.10,2013-11-09 01:11:00,
2013-11-08 20:26:00,41.3,33.0,30.04,SSE,148,3.0,7.0,72,0.00,,,0.02,weatherlink.com 1.10,2013-11-09 01:26:00,
2013-11-08 20:41:00,41.2,33.0,30.04,SE,126,2.0,6.0,73,0.00,,,0.02,weatherlink.com 1.10,2013-11-09 01:41:00,
2013-11-08 20:56:00,40.8,33.0,30.03,SE,134,2.0,5.0,74,0.00,,,0.02,weatherlink.com 1.10,2013-11-09 01:56:00,
2013-11-08 21:26:00,41.1,33.0,30.03,SSE,163,2.0,6.0,74,0.00,,,0.02,weatherlink.com 1.10,2013-11-09 02:26:00,
2013-11-08 21:41:00,41.1,33.0,30.04,SSE,150,4.0,6.0,74,0.00,,,0.02,weatherlink.com 1.10,2013-11-09 02:41:00,
2013-11-08 21:56:00,40.9,33.0,30.02,SSE,163,3.0,5.0,74,0.00,,,0.02,weatherlink.com 1.10,2013-11-09 02:56:00,
2013-11-08 22:12:00,40.9,33.0,30.02,SE,142,3.0,5.0,74,0.00,,,0.02,weatherlink.com 1.10,2013-11-09 03:12:00,
2013-11-08 22:27:00,41.1,33.0,30.02,SE,142,3.0,7.0,73,0.00,,,0.02,weatherlink.com 1.10,2013-11-09 03:27:00,
2013-11-08 22:42:00,41.1,33.0,30.01,SSE,161,4.0,9.0,73,0.00,,,0.02,weatherlink.com 1.10,2013-11-09 03:42:00,
2013-11-08 22:57:00,41.1,33.0,30.01,SE,126,7.0,7.0,73,0.00,,,0.02,weatherlink.com 1.10,2013-11-09 03:57:00,
2013-11-08 23:12:00,41.1,33.0,30.00,South,173,3.0,7.0,72,0.00,,,0.02,weatherlink.com 1.10,2013-11-09 04:12:00,
2013-11-08 23:27:00,40.9,33.0,30.00,South,175,2.0,7.0,72,0.00,,,0.02,weatherlink.com 1.10,2013-11-09 04:27:00,
2013-11-08 23:42:00,41.2,33.0,29.99,SE,133,3.0,9.0,72,0.00,,,0.02,weatherlink.com 1.10,2013-11-09 04:42:00,
2013-11-08 23:57:00,41.6,33.0,29.98,SE,126,6.0,8.0,71,0.00,,,0.02,weatherlink.com 1.10,2013-11-09 04:57:00,